Home   Weather   Eilat   Past weeks

Flag for Israel Past Weather in Eilat, Israel — Yesterday and Last 2 Weeks

Now
73 °F

Sunny.


Feels Like: 76 °F
Forecast: 60 / 89 °F
Wind: 23 mph from Northeast

Location: Eilat

Current Time: Apr 24, 2017 at 12:41:29 pm

Latest Report: Apr 24, 2017 at 11:50 am


Visibility: 10 mi

Pressure: 30.04 "Hg

Humidity: 29%

Dew Point: 39 °F

Location of EilatLocation

Past Weather in Eilat — Graph

°F

Eilat Temperature Yesterday

Maximum temperature yesterday: 88 °F (at 3:50 pm)
Minimum temperature yesterday: 72 °F (at 9:50 pm)
Average temperature yesterday: 80 °F

High & Low Weather Summary for the Past Weeks

 TemperatureHumidityPressure
High104 °F (Apr 21, 3:50 pm)78% (Apr 13, 8:50 pm)30.07 "Hg (Apr 13, 8:50 pm)
Low61 °F (Apr 15, 6:30 am)5% (Apr 21, 3:50 pm)29.62 "Hg (Apr 13, 2:50 pm)
Average81 °F30%29.88 "Hg
* Reported Apr 9 10:50 am — Apr 24 10:50 am, Eilat, Weather by CustomWeather, © 2017

Note: Actual official high and low records may vary slightly from our data, if they occured in-between our weather recording intervals... More about our weather records

Advertising

Eilat Weather History for the Previous 24 Hours

Scroll right to see more
 ConditionsComfort  
Time TempWeatherWind HumidityBarometerVisibility
10:50 am
Mon, Apr 24
70 °FSunny.23 mph33%30.07 "Hg10 mi
9:50 am68 °FSunny.21 mph38%30.07 "Hg10 mi
8:50 am66 °FSunny.23 mph40%30.07 "Hg10 mi
7:50 am64 °FClear.18 mph49%30.07 "Hg6 mi
6:50 am63 °FClear.14 mph49%30.04 "Hg6 mi
5:50 am61 °FClear.14 mph55%30.04 "Hg10 mi
5:30 am61 °FClear.13 mph55%30.04 "Hg10 mi
9:50 pm
Sun, Apr 23
72 °FClear.14 mph41%29.98 "Hg10 mi
8:50 pm73 °FClear.14 mph38%29.95 "Hg10 mi
7:50 pm77 °FClear.14 mph34%29.92 "Hg10 mi
6:50 pm81 °FSunny.17 mph32%29.89 "Hg10 mi
5:50 pm84 °FSunny.24 mph33%29.86 "Hg10 mi
4:50 pm86 °FSunny.22 mph29%29.83 "Hg10 mi
3:50 pm88 °FSunny.20 mph29%29.83 "Hg10 mi
2:50 pm86 °FSunny.15 mph31%29.86 "Hg10 mi
1:50 pm86 °FSunny.15 mph33%29.86 "Hg10 mi
12:50 pm84 °FSunny.10 mph35%29.89 "Hg10 mi
Weather by CustomWeather, © 2017

See weather overviewHow to use our weather pages